Tracking 26922 objects as of 30-Jan-2023
HD Live streaming from Space Station
objects crossing your sky now

CENTISPACE-1 S6

Track CENTISPACE-1 S6 now!
10-day predictions


NORAD ID: 54021
Int'l Code: 2022-126B
Perigee: 692.6 km
Apogee: 717.7 km
Inclination: 55.0 °
Period: 98.7 minutes
Semi major axis: 7076 km
RCS: Unknown
Launch date: October 7, 2022
Source: People's Republic of China (PRC)
Launch site: Yellow Sea Launch Area, China (YSLA)
Your satellite tracking list
Your tracking list is empty




NASA's NSSDC Master Catalog

Two Line Element Set (TLE):
1 54021U 22126B   23030.12936800  .00001694  00000-0  40068-3 0  9993
2 54021  55.0000  91.7803 0017707 174.2555 185.8625 14.58506203 16717
Source of the keplerian elements: AFSPC